Wetbulb
29.89 27.10 23.34 22.35 22.85 23.61 24.52 21.33 20.31 23.83 26.60 25.42 23.52 24.92 30.52 30.65 29.43 29.91 30.12 30.22 30.05 31.36 33.77 34.94 35.42 35.22 35.71 36.84 36.43 36.53 36.20 37.35 37.10 36.52 36.67 36.91 36.90 38.50 39.46 41.28 42.53 43.12 43.89 44.57
27.77 24.03 25.81 28.34 27.42 25.91 24.31 22.52 21.96 25.09 26.31 24.71 23.49 25.14 30.21 28.26 28.24 28.58 29.75 29.41 30.07 30.02 32.52 34.67 34.56 33.93 34.44 34.37 34.84 35.09 36.24 36.82 37.29 37.60 38.16 38.24 38.15 38.66 40.06 41.24 42.02 43.11 43.32 43.35
26.15 25.72 29.25 27.88 25.74 26.25 22.46 22.59 20.73 22.35 24.69 23.05 21.89 24.63 27.11 28.16 28.42 29.60 29.39 30.17 30.83 31.41 32.39 32.96 33.15 33.68 33.37 33.39 34.00 35.32 35.97 36.58 36.96 37.60 38.48 38.35 38.51 37.90 37.94 38.68 39.21 40.34 41.56 41.97
24.52 26.41 26.83 25.94 25.66 25.48 24.08 24.82 24.50 23.91 22.27 20.65 21.77 21.11 26.62 26.07 28.29 29.61 29.99 28.81 30.37 31.24 31.83 32.24 33.11 33.18 33.14 33.84 34.00 34.80 35.79 35.91 37.27 37.60 36.93 35.87 35.34 35.00 37.32 37.86 39.16 39.34 40.06 40.42
24.22 23.70 24.88 25.38 25.71 26.39 24.61 25.53 23.86 23.64 19.83 18.20 18.51 18.14 24.67 25.05 28.26 29.48 29.92 30.06 30.02 31.05 31.46 32.23 32.94 33.45 33.88 34.12 33.39 33.78 34.24 35.23 36.32 36.38 36.42 35.97 35.88 36.91 37.58 37.97 37.57 38.16 39.12 39.83
24.22 26.65 25.40 25.04 26.50 26.33 26.63 24.27 24.21 20.96 19.54 13.87 17.29 17.93 23.31 26.06 28.22 27.33 28.70 30.33 31.08 30.89 31.20 31.76 32.58 33.15 33.18 33.50 33.27 33.14 33.76 34.61 35.67 35.78 36.06 35.58 35.34 35.79 36.07 36.14 36.13 36.51 37.34 38.36
23.86 23.70 24.14 26.04 24.33 25.54 25.23 22.13 16.80 15.35 12.64 16.91 17.89 17.25 26.09 27.84 29.39 29.67 30.01 31.01 30.59 30.40 30.79 31.16 31.67 32.34 32.52 32.72 32.58 32.97 33.70 33.70 34.64 35.01 35.61 35.82 36.00 36.06 35.55 35.35 34.52 34.41 35.01 35.93
18.28 18.90 23.09 25.49 23.33 22.06 21.83 21.23 17.39 12.08 13.53 17.16 20.90 18.58 27.49 29.14 29.63 29.77 30.36 30.38 29.89 30.10 30.74 31.17 31.99 31.85 31.68 32.08 31.50 31.97 32.52 32.69 34.48 34.99 35.36 36.11 36.11 35.92 35.03 34.90 35.15 34.93 34.84 35.43
17.08 20.87 23.44 25.60 24.12 23.40 21.65 17.38 20.77 14.92 11.09 12.07 18.44 22.41 29.15 29.70 29.21 29.34 30.53 28.99 30.01 30.48 31.03 31.26 32.06 31.54 31.25 30.99 31.25 31.24 31.36 33.29 34.46 34.65 35.03 35.06 35.02 34.32 34.45 35.73 36.29 35.98 36.50 36.61
23.06 18.27 22.92 24.15 24.23 23.08 22.88 25.10 17.67 15.41 10.26 8.03 18.19 19.18 25.31 28.58 27.98 27.35 28.54 29.20 29.90 30.34 30.62 31.09 31.72 31.46 31.14 30.71 30.47 30.59 32.22 32.71 33.48 34.02 34.07 34.20 33.74 34.27 34.14 34.32 35.11 36.17 36.74 36.98
14.90 19.72 19.38 21.33 17.64 20.27 20.00 17.80 17.25 17.03 17.81 13.91 11.38 19.18 26.81 28.56 29.07 29.62 29.46 29.88 29.59 30.16 30.77 30.61 30.79 30.55 30.16 29.79 29.66 30.16 31.97 32.15 32.40 32.92 32.97 32.32 32.25 32.79 33.13 34.10 34.64 34.76 35.20 36.23
22.51 16.66 15.40 17.41 20.85 22.44 21.88 20.76 20.89 15.30 13.01 13.57 16.40 17.62 29.52 28.70 29.10 28.15 29.60 30.06 28.89 29.63 30.17 29.58 29.49 29.36 29.19 29.19 28.81 30.56 31.50 31.05 31.83 32.02 31.23 31.93 32.85 32.86 32.71 32.75 33.05 33.74 33.27 34.15
22.18 15.59 9.39 16.59 17.88 19.92 13.97 21.41 22.68 20.17 18.42 11.60 12.00 22.11 28.09 27.14 26.52 28.65 28.70 29.89 29.83 29.77 29.31 29.39 28.96 28.72 28.45 28.57 28.56 30.76 30.63 30.40 30.88 30.20 30.18 30.66 31.29 31.07 30.51 30.23 30.57 31.58 32.06 32.51
28.55 17.16 16.00 17.66 17.80 15.48 11.34 12.03 19.95 16.29 10.04 16.06 18.20 26.70 31.89 33.86 32.57 30.52 29.04 29.00 29.08 29.01 28.85 28.42 28.26 28.11 28.13 28.42 29.02 29.85 29.54 29.81 29.43 29.52 30.18 29.47 29.97 29.78 29.77 29.88 30.20 30.76 31.42 31.40
22.24 14.15 13.57 15.48 19.26 14.76 14.98 11.37 16.40 18.35 22.84 18.69 27.70 24.14 30.02 33.18 30.16 29.17 28.60 28.00 28.06 28.10 28.03 28.17 28.23 28.09 27.71 27.63 29.57 29.16 28.67 28.22 28.31 28.80 29.63 29.00 29.47 29.80 29.91 29.59 30.18 30.21 30.32 30.70
21.08 11.62 11.36 10.58 18.15 19.48 17.36 17.88 17.11 22.00 23.49 23.34 24.80 24.45 32.57 34.01 34.28 32.89 32.07 28.84 27.94 28.28 28.58 29.17 29.16 28.03 28.31 28.65 29.79 29.32 27.39 27.06 28.00 27.71 28.37 29.44 29.47 29.10 28.92 29.33 29.43 29.35 29.47 30.28
18.54 12.83 9.15 9.44 16.89 16.18 14.35 19.04 19.67 23.56 22.34 24.86 21.16 27.88 33.59 31.61 30.54 29.88 29.02 28.05 29.46 29.79 29.56 29.53 28.94 28.15 28.48 29.08 30.13 27.06 26.02 26.67 26.96 28.94 29.10 29.11 28.86 28.52 28.69 29.10 28.55 28.35 28.47 29.00
20.20 17.31 16.91 6.59 7.80 10.10 26.94 22.07 21.64 23.84 26.49 27.20 27.80 29.26 31.64 32.00 28.97 29.28 29.10 29.58 30.38 30.48 29.42 28.94 28.17 27.44 27.90 28.96 27.70 26.67 26.79 26.55 27.32 28.74 28.66 28.82 28.04 28.17 28.34 28.68 27.91 27.93 28.23 27.61
23.50 23.24 16.22 14.70 0.16 16.98 28.18 24.67 19.83 17.98 25.53 27.48 27.47 29.11 30.73 30.54 29.27 31.36 33.69 32.09 32.58 30.65 30.20 29.38 28.37 28.01 28.55 28.00 27.33 26.75 26.20 26.45 27.79 28.07 27.69 27.41 27.77 28.17 28.01 27.83 27.33 27.77 27.23 27.43
24.24 25.58 23.71 10.45 13.19 11.38 25.52 21.83 24.03 23.83 21.97 30.91 30.21 29.73 29.32 27.61 24.06 29.04 31.50 31.14 30.71 30.16 29.83 28.83 28.15 28.51 28.66 28.17 27.18 27.38 25.47 27.70 26.78 27.68 25.82 25.42 27.18 28.20 27.42 27.35 27.22 28.26 27.95 28.00
18.62 19.24 18.08 16.05 14.07 14.52 24.60 24.85 24.82 21.03 28.29 29.90 29.02 29.60 26.40 26.02 30.68 31.41 30.28 29.57 29.94 29.71 28.96 28.82 27.61 28.60 28.95 28.53 27.50 26.74 27.40 26.29 27.66 26.02 23.44 24.50 28.65 28.81 28.40 27.50 25.20 27.10 27.75 28.12
18.83 17.09 16.91 18.11 14.82 13.57 24.49 23.67 24.51 31.21 30.58 31.08 26.61 28.21 27.14 29.47 29.36 29.78 30.24 29.46 29.18 29.25 26.79 28.84 27.63 28.26 28.66 27.51 26.83 26.36 26.41 24.55 27.43 21.10 21.07 26.55 28.91 29.60 29.22 28.58 27.30 26.74 27.18 26.97
20.08 23.31 18.56 21.20 20.36 27.05 26.69 27.68 31.39 29.99 31.10 28.75 29.13 29.45 29.13 28.33 28.60 29.08 29.43 28.38 28.62 28.51 28.14 26.63 28.09 26.17 21.80 22.77 24.29 25.11 24.79 28.51 26.23 16.94 16.42 20.89 28.22 29.50 30.10 29.31 27.79 27.24 27.91 27.37
21.30 25.56 22.74 23.55 27.43 27.82 26.94 29.33 29.14 28.96 28.11 28.86 28.88 28.61 28.17 28.91 29.20 28.19 28.26 27.88 27.96 27.73 27.60 25.76 25.44 24.77 24.39 22.74 24.34 25.54 26.90 27.90 25.49 14.04 14.76 18.28 26.70 28.53 29.48 29.92 29.41 28.78 28.83 27.76
25.10 25.71 24.89 22.96 27.93 28.92 31.56 29.19 31.43 32.60 30.40 28.30 29.52 28.76 29.53 28.45 29.10 28.91 28.97 29.08 29.70 29.40 27.15 25.83 25.89 26.00 26.43 24.07 24.03 22.12 23.63 26.54 26.41 23.50 13.37 15.37 27.15 28.39 27.71 28.68 29.96 28.56 29.50 29.64
24.18 23.71 25.56 27.01 33.81 35.56 37.96 36.41 32.35 30.20 30.59 31.69 31.14 29.62 28.49 28.90 29.63 30.00 27.99 29.79 29.09 29.07 26.65 25.43 25.55 25.18 25.80 24.47 24.87 23.49 23.08 25.89 27.76 26.77 19.37 17.23 24.80 27.52 26.82 27.04 27.38 31.21 31.17 31.15
MSLP
1020.99 1021.88 1022.93 1023.71 1023.55 1023.16 1022.82 1023.10 1023.35 1023.05 1023.66 1023.51 1022.51 1021.62 1019.05 1019.30 1019.40 1019.34 1019.52 1019.50 1019.49 1019.19 1018.56 1018.61 1018.42 1018.45 1018.60 1018.36 1018.33 1018.22 1018.18 1017.61 1017.51 1017.38 1017.30 1017.06 1016.62 1015.98 1015.59 1015.15 1014.78 1014.45 1014.07 1013.62
1022.00 1023.13 1023.89 1023.93 1023.74 1023.54 1023.65 1023.72 1023.76 1023.59 1023.87 1024.22 1023.03 1021.39 1018.56 1018.33 1018.15 1018.11 1018.31 1018.67 1018.75 1018.79 1018.55 1018.34 1018.25 1018.26 1018.39 1018.29 1018.25 1018.13 1017.88 1017.50 1017.24 1017.18 1017.10 1016.93 1016.39 1015.65 1015.22 1014.67 1014.21 1013.97 1013.59 1013.19
1023.03 1024.11 1024.03 1024.14 1024.17 1023.94 1024.28 1024.50 1024.80 1025.17 1024.64 1024.60 1023.77 1020.85 1018.45 1017.65 1017.66 1017.34 1017.55 1017.83 1018.17 1018.27 1018.37 1018.23 1018.10 1018.16 1018.19 1018.20 1018.17 1017.93 1017.45 1017.13 1016.87 1016.93 1016.79 1016.29 1015.97 1015.52 1014.97 1014.39 1013.89 1013.49 1013.08 1012.71
1024.34 1024.53 1024.38 1024.59 1024.48 1024.71 1025.13 1025.38 1025.51 1025.88 1025.84 1025.59 1024.45 1022.29 1018.90 1017.57 1017.32 1017.00 1017.06 1017.45 1017.65 1018.00 1018.05 1018.12 1018.05 1018.05 1018.09 1017.98 1017.80 1017.46 1017.06 1016.97 1016.82 1016.72 1016.59 1016.45 1016.16 1015.39 1014.87 1014.24 1013.46 1013.00 1012.56 1012.06
1024.96 1025.01 1025.03 1024.96 1025.08 1025.13 1025.72 1025.95 1026.15 1026.26 1026.54 1026.44 1024.86 1023.91 1018.58 1017.64 1016.80 1016.40 1016.51 1017.00 1017.35 1017.56 1017.81 1017.96 1017.84 1017.80 1017.67 1017.71 1017.56 1017.32 1017.16 1016.91 1016.49 1016.45 1016.34 1016.25 1015.81 1015.26 1014.42 1013.83 1013.14 1012.56 1011.96 1011.46
1025.39 1025.48 1025.43 1025.42 1025.44 1025.69 1025.93 1026.40 1026.53 1027.05 1026.87 1026.41 1024.72 1023.80 1019.37 1017.39 1016.08 1015.78 1015.85 1016.32 1016.66 1017.17 1017.46 1017.65 1017.60 1017.70 1017.64 1017.45 1017.35 1017.32 1017.15 1016.51 1016.09 1016.24 1016.22 1016.03 1015.55 1014.83 1014.15 1013.60 1012.94 1012.32 1011.58 1010.91
1025.89 1025.85 1025.91 1025.88 1026.00 1026.24 1026.23 1026.49 1027.39 1027.77 1027.56 1026.19 1024.82 1023.80 1018.28 1016.29 1015.73 1015.56 1015.50 1015.83 1016.08 1016.57 1016.93 1017.33 1017.70 1017.64 1017.57 1017.40 1017.20 1017.12 1016.86 1016.39 1016.20 1016.11 1015.87 1015.61 1015.31 1014.69 1014.01 1013.57 1013.06 1012.41 1011.55 1010.85
1026.62 1026.59 1026.54 1026.56 1026.53 1026.59 1026.79 1027.18 1027.68 1028.33 1028.42 1026.66 1024.90 1022.20 1016.97 1015.58 1015.07 1015.35 1015.62 1015.84 1016.15 1016.57 1016.71 1017.08 1017.33 1017.38 1017.38 1017.29 1017.09 1016.88 1016.64 1016.42 1016.15 1015.69 1015.36 1015.15 1014.77 1014.22 1013.84 1013.40 1012.70 1012.02 1011.30 1010.48
1026.54 1026.79 1026.94 1027.01 1027.05 1027.28 1027.69 1027.94 1028.03 1028.44 1029.07 1027.77 1023.84 1020.70 1016.72 1015.20 1015.06 1015.40 1015.61 1016.15 1016.52 1016.71 1016.70 1016.88 1016.91 1016.93 1017.05 1017.05 1016.79 1016.68 1016.61 1016.29 1015.76 1015.39 1015.02 1014.70 1014.32 1013.88 1013.21 1012.54 1011.93 1011.04 1010.29 1009.50
1026.02 1026.95 1027.56 1027.53 1027.47 1027.68 1027.47 1028.09 1028.65 1029.29 1029.56 1027.91 1023.82 1021.46 1017.67 1015.56 1015.23 1015.47 1015.86 1016.09 1016.24 1016.55 1016.76 1016.77 1016.77 1016.62 1016.69 1016.79 1016.71 1016.67 1016.44 1015.95 1015.48 1015.20 1014.70 1014.25 1013.93 1013.42 1012.81 1012.23 1011.17 1010.20 1009.44 1008.78
1026.55 1026.99 1028.65 1028.37 1027.99 1027.69 1028.49 1028.42 1028.86 1029.03 1028.72 1027.72 1025.31 1020.04 1016.31 1015.64 1015.35 1015.49 1015.60 1015.72 1015.90 1016.17 1016.26 1016.30 1016.41 1016.30 1016.48 1016.64 1016.65 1016.52 1016.22 1015.77 1015.43 1014.96 1014.50 1014.14 1013.76 1013.22 1012.54 1011.54 1010.53 1009.77 1009.02 1008.13
1026.39 1026.98 1028.05 1027.72 1027.78 1027.89 1027.90 1028.01 1027.99 1028.50 1028.57 1027.35 1025.46 1018.60 1015.26 1015.05 1015.14 1015.32 1015.44 1015.58 1015.63 1016.04 1016.06 1016.01 1015.99 1016.01 1016.27 1016.51 1016.37 1016.29 1016.04 1015.79 1015.37 1014.91 1014.48 1013.83 1013.42 1012.80 1012.04 1011.28 1010.53 1009.64 1008.62 1007.77
1026.30 1027.30 1028.11 1028.42 1028.98 1028.79 1028.60 1028.10 1027.89 1027.74 1027.37 1026.19 1024.56 1017.39 1015.09 1014.61 1014.69 1015.00 1015.47 1015.42 1015.34 1015.49 1015.61 1015.63 1015.59 1015.65 1016.02 1016.13 1016.15 1016.11 1015.95 1015.61 1015.26 1015.02 1014.49 1013.86 1013.28 1012.70 1011.99 1011.18 1010.26 1009.22 1008.09 1007.13
1025.57 1027.46 1028.32 1027.90 1027.66 1027.69 1028.37 1027.79 1027.52 1027.24 1026.71 1023.92 1020.50 1016.23 1014.19 1013.55 1013.98 1014.26 1014.74 1015.07 1014.98 1014.96 1015.06 1014.99 1015.09 1015.30 1015.61 1015.82 1015.93 1015.85 1015.66 1015.50 1015.33 1014.98 1014.31 1013.77 1013.21 1012.59 1011.81 1010.96 1009.85 1008.79 1007.72 1006.52
1025.74 1027.48 1027.76 1027.45 1027.37 1027.60 1027.10 1026.61 1026.53 1026.03 1023.67 1022.29 1017.44 1016.47 1013.09 1012.02 1013.02 1013.20 1013.67 1014.16 1014.48 1014.30 1014.67 1014.50 1014.59 1014.89 1015.17 1015.50 1015.66 1015.60 1015.48 1015.32 1015.17 1014.90 1014.18 1013.67 1013.11 1012.41 1011.62 1010.57 1009.38 1008.34 1007.22 1006.02
1026.27 1027.09 1027.92 1027.72 1027.04 1026.81 1026.24 1025.19 1024.98 1023.76 1022.76 1020.75 1017.62 1015.46 1012.51 1011.10 1012.22 1012.31 1012.81 1013.46 1013.81 1013.65 1013.92 1013.82 1013.90 1014.25 1014.80 1015.26 1015.38 1015.34 1015.38 1015.27 1015.08 1014.59 1014.00 1013.55 1012.87 1012.15 1011.29 1010.18 1009.10 1008.06 1006.85 1005.72
1026.02 1026.98 1028.12 1027.84 1026.78 1026.19 1024.73 1021.49 1021.38 1020.78 1019.98 1018.27 1017.08 1012.75 1010.76 1011.44 1011.86 1011.97 1012.23 1012.74 1012.77 1012.73 1013.04 1013.07 1013.25 1013.70 1014.22 1014.65 1014.92 1015.12 1015.19 1015.11 1014.90 1014.30 1013.92 1013.33 1012.77 1011.97 1011.10 1010.08 1009.11 1008.13 1006.92 1005.86
1024.78 1026.14 1026.99 1027.55 1027.08 1024.84 1018.56 1018.07 1018.08 1018.17 1017.24 1016.33 1014.21 1012.29 1010.76 1011.35 1011.75 1011.46 1011.34 1011.65 1011.60 1011.77 1012.14 1012.50 1012.81 1013.24 1013.74 1014.20 1014.58 1014.85 1015.03 1014.98 1014.70 1014.19 1013.81 1013.35 1012.68 1011.96 1011.09 1010.14 1009.26 1008.26 1007.22 1006.14
1023.37 1024.18 1026.16 1026.74 1025.88 1021.80 1016.92 1016.34 1017.02 1016.91 1014.37 1013.90 1012.92 1011.46 1010.46 1012.07 1012.10 1009.75 1009.12 1009.95 1010.21 1010.84 1011.46 1011.80 1012.18 1012.86 1013.37 1013.85 1014.23 1014.66 1014.82 1014.82 1014.63 1014.32 1013.92 1013.48 1012.72 1011.93 1011.19 1010.35 1009.57 1008.59 1007.63 1006.32
1023.01 1023.06 1023.79 1025.77 1024.40 1021.22 1015.31 1015.03 1014.82 1014.85 1012.93 1010.88 1011.10 1011.00 1011.34 1012.25 1012.31 1009.85 1008.88 1009.09 1009.71 1010.39 1010.69 1011.34 1012.03 1012.67 1013.11 1013.44 1013.90 1014.36 1014.62 1014.60 1014.54 1014.32 1014.05 1013.56 1012.75 1012.09 1011.42 1010.79 1010.09 1009.01 1008.17 1007.13
1022.46 1022.78 1022.37 1022.87 1022.21 1019.13 1014.39 1014.79 1014.76 1013.90 1010.64 1009.67 1010.10 1010.54 1011.31 1011.68 1010.37 1009.68 1009.32 1009.55 1009.72 1010.04 1010.49 1010.97 1011.63 1012.13 1012.50 1013.07 1013.61 1014.09 1014.33 1014.22 1014.22 1014.19 1013.97 1013.55 1012.73 1012.18 1011.58 1011.09 1010.29 1009.48 1008.79 1007.85
1018.93 1020.63 1020.90 1021.26 1020.88 1018.18 1013.26 1014.41 1013.12 1009.56 1008.90 1008.73 1009.52 1009.95 1010.45 1010.06 1010.06 1009.92 1009.81 1009.99 1010.25 1010.54 1010.75 1010.76 1011.24 1011.61 1011.97 1012.60 1013.27 1013.71 1013.86 1013.69 1013.89 1013.98 1013.84 1013.48 1012.77 1012.24 1011.59 1011.40 1010.53 1009.79 1009.29 1008.67
1016.58 1014.11 1015.87 1016.37 1014.40 1012.21 1011.70 1009.50 1008.66 1008.25 1008.07 1008.46 1008.95 1009.06 1009.33 1009.71 1009.73 1009.77 1009.74 1009.81 1009.95 1010.26 1010.49 1010.63 1010.85 1011.12 1011.70 1012.04 1012.66 1013.22 1013.11 1013.41 1013.76 1013.86 1013.89 1013.57 1012.77 1012.48 1011.79 1011.65 1011.04 1010.20 1009.87 1009.59
1013.98 1013.39 1013.22 1014.00 1011.38 1010.48 1010.13 1009.46 1009.21 1008.69 1008.63 1008.53 1008.55 1008.79 1009.34 1009.44 1009.18 1009.11 1009.13 1009.21 1009.52 1009.72 1010.07 1010.23 1010.70 1010.99 1011.22 1011.50 1011.96 1012.14 1012.47 1012.88 1013.54 1013.71 1013.80 1013.73 1012.92 1012.66 1012.22 1011.80 1011.72 1010.99 1010.38 1010.20
1010.68 1011.60 1011.42 1010.64 1009.16 1008.98 1007.62 1007.97 1007.70 1007.75 1008.04 1008.42 1008.11 1008.37 1008.62 1009.07 1008.86 1008.45 1008.57 1008.50 1008.43 1008.61 1008.95 1009.54 1009.88 1010.08 1010.04 1010.55 1011.12 1011.52 1011.93 1012.38 1012.99 1013.44 1013.59 1013.76 1013.26 1012.72 1012.41 1012.26 1011.94 1011.81 1011.36 1010.89
1008.12 1008.13 1008.69 1006.91 1005.45 1005.26 1003.65 1004.68 1005.73 1006.70 1006.97 1006.98 1007.41 1007.65 1007.35 1007.88 1008.10 1007.91 1007.83 1007.53 1007.48 1007.65 1008.02 1008.52 1008.78 1009.09 1009.02 1009.57 1010.08 1010.64 1011.08 1011.61 1012.20 1012.79 1013.24 1013.46 1013.30 1012.79 1012.42 1012.47 1012.35 1012.06 1011.86 1011.58
Wind_Speed
5 8 3 3 0 1 5 2 2 3 1 5 4 11 24 10 11 14 13 13 10 11 7 7 7 6 7 6 6 7 7 8 4 3 4 4 4 4 4 4 7 8 8 9
6 3 3 1 2 2 2 1 3 6 1 3 6 18 16 6 7 8 12 12 11 6 7 8 6 5 6 6 8 8 8 8 5 3 4 4 4 4 6 6 7 8 10 9
5 2 1 0 4 2 2 1 2 3 8 1 8 10 5 3 3 4 6 7 7 10 10 8 6 6 6 7 8 7 8 7 6 6 4 4 4 4 6 7 8 5 9 9
6 1 2 2 3 2 1 2 2 4 7 4 5 8 9 4 9 5 5 7 8 9 7 5 6 7 6 7 7 7 7 7 6 6 5 5 6 12 10 9 8 8 9 10
2 2 2 2 1 1 2 1 1 2 2 4 1 2 12 4 6 6 7 8 9 9 8 8 8 7 7 6 6 6 7 7 5 6 6 6 11 10 9 9 12 11 9 8
3 1 1 2 2 2 2 2 3 3 2 3 1 4 9 5 5 3 3 8 9 9 8 8 6 6 7 6 5 5 6 6 6 7 8 9 12 13 11 11 11 10 9 8
3 1 1 1 3 2 2 5 4 7 5 6 0 1 15 4 6 5 4 7 9 8 8 6 6 7 6 7 6 6 6 8 7 8 9 9 12 13 13 13 12 14 10 10
5 6 1 3 2 2 2 4 6 6 3 5 3 9 9 6 5 7 6 6 5 7 6 6 7 7 7 7 7 6 7 7 7 8 10 10 11 8 9 12 13 12 11 12
6 4 1 2 1 1 3 1 1 6 2 3 5 9 13 7 11 8 9 5 8 8 7 8 7 6 6 6 7 6 7 7 8 9 10 11 10 12 12 15 14 13 13 14
5 2 1 2 2 2 3 5 4 4 2 6 6 6 10 5 3 2 6 9 9 8 7 7 7 7 5 6 5 7 7 7 8 9 9 10 13 12 13 14 16 17 15 16
4 5 1 3 5 8 3 2 3 3 5 6 4 9 9 7 4 8 9 10 9 9 8 7 7 7 6 5 6 7 6 7 8 8 10 12 13 13 14 15 17 17 18 17
5 6 4 7 1 1 1 3 5 6 7 3 3 14 4 7 7 5 9 7 6 7 8 7 7 7 5 6 6 6 6 6 7 8 10 12 13 13 14 15 16 16 18 18
5 2 3 8 5 5 3 5 3 4 3 8 6 11 1 3 4 7 9 9 9 8 9 8 7 6 6 6 6 6 6 6 7 9 10 12 13 13 15 17 17 17 18 18
7 2 7 9 7 5 4 4 6 6 4 5 11 22 21 21 15 9 9 10 10 9 9 8 7 6 6 6 5 6 6 5 6 8 10 11 13 15 16 17 17 17 18 18
7 7 4 5 4 2 5 5 9 14 13 10 22 17 25 23 9 9 7 7 8 9 9 8 7 6 5 6 5 5 4 5 6 8 9 12 12 14 14 15 15 18 17 15
1 3 4 5 2 6 8 7 12 20 13 19 27 31 31 30 23 22 17 9 10 10 9 8 7 5 6 6 5 4 4 5 5 7 10 11 12 13 13 14 15 17 16 15
8 7 4 8 3 3 13 16 24 16 9 18 19 30 28 20 14 11 10 9 13 13 10 8 7 7 6 6 4 3 4 5 5 7 9 10 11 12 13 14 17 16 16 16
9 7 2 3 3 4 9 2 5 21 17 23 20 25 26 15 6 9 10 11 13 12 9 8 6 5 6 4 3 2 3 4 5 7 9 11 12 12 12 13 15 15 12 13
5 6 4 4 5 9 18 10 12 12 16 25 27 29 28 9 7 22 15 18 18 9 7 7 6 5 5 5 3 2 2 3 4 6 9 10 10 11 12 13 15 14 12 13
4 3 8 4 6 12 7 2 5 7 11 18 15 20 12 6 2 8 4 6 9 8 6 7 7 5 5 4 4 2 1 3 3 6 7 8 8 10 11 11 11 11 11 13
7 5 17 9 6 13 14 5 4 6 10 3 7 11 9 7 10 3 2 1 3 6 8 7 7 7 7 6 5 4 3 4 3 4 5 6 7 9 9 11 6 9 11 12
15 12 8 6 6 17 11 6 11 9 6 6 6 6 10 10 9 8 6 5 5 7 5 7 7 7 7 6 6 5 6 4 2 3 4 5 7 6 6 10 7 8 11 12
9 14 14 17 13 5 14 7 19 6 6 4 3 7 10 9 8 9 9 8 9 9 7 4 7 6 5 7 7 7 5 4 2 2 3 4 4 5 5 8 8 6 9 10
6 6 5 7 18 22 17 19 10 5 9 5 6 4 6 8 8 8 7 8 7 7 9 5 6 7 7 8 9 8 6 5 3 2 2 3 4 4 6 4 6 6 7 7
8 15 13 5 15 10 17 19 23 18 11 8 13 10 14 9 12 11 8 9 10 9 7 7 9 9 11 8 10 8 7 7 5 4 2 2 1 4 2 3 4 6 6 6
9 12 13 14 26 14 22 13 21 19 18 19 16 11 14 13 17 14 11 12 9 10 6 7 9 8 9 8 9 10 9 10 8 6 3 3 3 2 3 2 2 9 11 12
Wind_Direction
8 64 103 149 321 105 102 99 275 262 43 332 235 276 279 240 231 236 228 235 242 235 248 245 250 263 281 281 304 298 306 302 312 318 322 308 281 279 271 266 267 271 275 273
29 85 189 265 345 103 68 150 276 275 159 7 342 289 282 257 236 223 222 222 226 224 240 253 262 270 278 284 292 294 288 294 305 309 281 261 288 281 283 274 276 273 275 273
127 114 122 73 34 97 49 33 5 289 325 231 316 290 318 280 257 246 238 219 207 211 225 250 267 269 287 293 292 288 290 303 308 298 288 298 293 288 300 297 294 263 266 268
85 338 76 76 84 44 323 77 61 335 16 287 15 281 302 323 301 263 248 217 220 219 233 244 251 268 265 277 292 295 313 310 297 307 315 307 301 305 303 298 294 287 273 268
193 120 109 106 98 38 151 27 58 87 73 349 8 48 270 341 286 265 242 230 228 226 224 247 243 246 274 285 296 311 308 295 309 318 311 299 298 296 297 293 297 291 283 268
106 199 62 113 63 84 149 128 65 52 72 13 235 135 279 219 216 234 228 229 225 223 235 240 261 277 277 296 311 314 298 299 327 318 302 293 294 299 300 301 301 302 298 286
10 184 98 93 146 159 118 62 330 350 6 227 348 221 246 270 241 228 213 235 226 219 212 234 279 289 288 304 313 305 313 317 312 295 297 294 294 296 297 305 305 305 305 297
140 321 40 357 49 140 94 144 157 226 245 278 297 239 255 218 234 253 276 264 218 207 215 232 268 271 274 288 293 297 320 304 294 301 306 297 293 290 297 299 300 295 295 291
129 256 160 81 76 78 153 139 155 98 62 36 239 289 293 251 262 261 234 236 248 240 224 242 265 266 275 283 291 302 300 288 309 309 305 303 302 293 291 296 292 295 289 293
222 71 345 71 133 77 160 155 74 4 337 294 279 276 247 294 275 250 237 238 239 236 250 257 277 289 274 273 286 295 290 296 305 303 309 312 309 303 304 298 288 288 293 294
124 108 267 49 207 173 142 174 61 113 157 195 297 254 218 234 242 239 242 241 233 232 242 269 284 283 266 281 288 293 300 307 310 313 320 318 312 310 306 298 300 302 301 293
202 145 182 215 118 20 332 218 173 132 231 227 152 267 262 230 245 239 259 268 258 243 264 268 274 278 281 280 297 298 306 307 315 315 318 315 316 314 309 306 306 302 299 300
209 296 28 340 359 2 214 199 200 87 77 204 152 259 170 240 263 255 250 261 257 257 271 276 282 268 265 275 292 302 306 313 316 322 319 320 321 318 314 311 310 307 304 299
120 116 178 192 205 134 200 221 189 145 149 185 224 276 263 269 272 266 245 252 260 258 258 266 281 259 255 268 287 300 314 319 309 310 327 325 320 320 318 317 314 306 307 304
136 198 165 242 209 175 213 183 185 208 217 205 267 239 265 266 257 241 237 252 257 264 263 259 250 253 256 279 295 305 313 318 313 311 329 324 315 322 312 315 312 317 316 311
192 206 121 291 4 211 265 197 210 222 234 257 258 275 265 278 280 273 275 262 266 263 257 254 244 239 252 259 275 300 316 306 311 320 329 321 320 322 319 319 321 324 322 321
154 136 107 262 10 355 286 212 209 220 197 226 242 243 271 277 267 260 255 229 248 258 250 252 240 223 228 241 244 298 318 312 308 336 328 326 324 327 325 323 331 329 332 329
148 138 118 205 31 239 253 134 175 214 239 224 251 261 258 269 280 257 229 233 248 245 246 239 229 205 221 211 221 279 305 317 332 339 332 333 335 334 330 331 336 337 333 337
173 132 149 175 203 302 283 199 169 166 252 221 234 249 259 281 320 290 253 220 235 230 222 225 194 188 182 194 192 247 342 329 336 336 334 325 335 335 333 338 340 341 336 348
178 68 180 142 202 209 261 99 140 137 276 224 210 241 259 133 267 258 256 185 213 212 188 181 184 174 182 208 176 226 247 326 325 337 318 310 334 339 341 337 339 348 347 345
169 179 205 194 223 280 244 155 171 126 251 176 179 221 160 196 207 289 351 239 198 190 184 168 173 190 202 175 171 217 248 265 311 315 310 316 356 346 350 336 326 355 349 340
169 163 191 175 197 259 142 80 186 205 219 198 181 191 195 225 243 257 268 265 239 225 203 190 183 203 192 174 165 206 238 216 278 319 327 348 15 352 3 351 347 5 3 358
197 185 172 192 205 251 212 220 218 211 200 187 190 192 203 212 235 241 245 241 229 228 230 204 206 207 189 181 175 199 224 185 218 360 328 323 27 350 6 14 354 24 16 7
246 169 178 125 242 243 228 246 275 243 234 278 260 234 199 229 236 245 229 242 237 233 227 202 198 216 220 197 195 208 169 160 179 204 288 312 68 38 21 31 10 19 31 7
176 152 200 263 275 280 257 222 234 250 240 234 251 227 238 234 251 237 247 251 248 234 200 190 206 215 225 184 203 192 182 162 187 196 209 250 95 90 50 7 25 18 23 31
187 177 182 214 231 218 245 216 208 223 237 237 244 249 236 220 240 248 239 249 245 247 189 208 219 213 224 189 202 188 179 176 186 195 185 206 181 153 115 85 11 33 38 31